| time (UTC) | temp C | wind direction | speed KPH | gust KPH | rain 1hr cm | rain 24hr cm | rain mn cm | humidity % | barometer mb |
| 20260507085531 | 8 | 284 | 6.4 | 14.5 | 0.00 | 0.00 | 0.00 | 66 | 1018.5 |
| 20260507084520 | 7 | 287 | 4.8 | 12.9 | 0.00 | 0.00 | 0.00 | 67 | 1018.6 |
| 20260507083529 | 8 | 269 | 1.6 | 4.8 | 0.00 | 0.00 | 0.00 | 66 | 1018.6 |
| 20260507082518 | 8 | 280 | 4.8 | 11.3 | 0.00 | 0.00 | 0.00 | 64 | 1018.5 |
| 20260507081527 | 8 | 281 | 8.0 | 17.7 | 0.00 | 0.00 | 0.00 | 62 | 1018.4 |
| 20260507080531 | 8 | 277 | 4.8 | 12.9 | 0.00 | 0.00 | 0.00 | 63 | 1018.2 |
| 20260507075526 | 8 | 282 | 6.4 | 11.3 | 0.00 | 0.00 | 0.00 | 63 | 1017.8 |
| 20260507074535 | 8 | 285 | 6.4 | 16.1 | 0.00 | 0.00 | 0.00 | 62 | 1017.7 |
| 20260507073524 | 8 | 279 | 6.4 | 14.5 | 0.00 | 0.00 | 0.00 | 62 | 1017.4 |
| 20260507072535 | 8 | 254 | 8.0 | 19.3 | 0.00 | 0.00 | 0.00 | 62 | 1017.4 |
| 20260507071523 | 8 | 262 | 6.4 | 16.1 | 0.00 | 0.00 | 0.00 | 62 | 1017.3 |
| 20260507070532 | 9 | 272 | 8.0 | 16.1 | 0.00 | 0.00 | 0.00 | 61 | 1017.2 |
| 20260507065521 | 10 | 272 | 8.0 | 19.3 | 0.00 | 0.00 | 0.00 | 59 | 1017.1 |
| 20260507064533 | 10 | 266 | 11.3 | 24.1 | 0.00 | 0.00 | 0.00 | 57 | 1016.9 |
| 20260507063519 | 10 | 274 | 14.5 | 25.7 | 0.00 | 0.00 | 0.00 | 56 | 1016.9 |
| 20260507062529 | 10 | 267 | 8.0 | 16.1 | 0.00 | 0.00 | 0.00 | 54 | 1016.7 |
| 20260507061525 | 10 | 276 | 8.0 | 14.5 | 0.00 | 0.00 | 0.00 | 53 | 1016.7 |
| 20260507060534 | 11 | 271 | 9.7 | 24.1 | 0.00 | 0.00 | 0.00 | 53 | 1016.5 |
| 20260507055517 | 11 | 262 | 9.7 | 22.5 | 0.00 | 0.00 | 0.00 | 53 | 1016.2 |
| 20260507054526 | 11 | 263 | 11.3 | 24.1 | 0.00 | 0.00 | 0.00 | 52 | 1016.4 |
| 20260507053535 | 10 | 231 | 9.7 | 17.7 | 0.00 | 0.00 | 0.00 | 54 | 1016.2 |
| 20260507052524 | 10 | 258 | 11.3 | 24.1 | 0.00 | 0.00 | 0.00 | 53 | 1015.9 |
| 20260507051535 | 10 | 251 | 11.3 | 24.1 | 0.00 | 0.00 | 0.00 | 51 | 1015.8 |
| 20260507050523 | 10 | 267 | 11.3 | 19.3 | 0.00 | 0.00 | 0.00 | 52 | 1015.8 |
| 20260507045533 | 11 | 259 | 12.9 | 22.5 | 0.00 | 0.00 | 0.00 | 48 | 1015.9 |
| 20260507044521 | 10 | 252 | 6.4 | 14.5 | 0.00 | 0.00 | 0.00 | 51 | 1015.8 |
| 20260507043531 | 11 | 223 | 12.9 | 19.3 | 0.00 | 0.00 | 0.00 | 48 | 1015.6 |
| 20260507042519 | 11 | 255 | 9.7 | 19.3 | 0.00 | 0.00 | 0.00 | 48 | 1015.3 |
| 20260507041529 | 11 | 243 | 11.3 | 27.4 | 0.00 | 0.00 | 0.00 | 48 | 1015.1 |
| 20260507040519 | 10 | 243 | 11.3 | 22.5 | 0.00 | 0.00 | 0.00 | 50 | 1015.1 |
| 20260507035534 | 11 | 236 | 11.3 | 24.1 | 0.00 | 0.00 | 0.00 | 49 | 1015.1 |
| 20260507034543 | 10 | 249 | 11.3 | 25.7 | 0.00 | 0.00 | 0.00 | 49 | 1015.0 |
| 20260507033526 | 10 | 237 | 11.3 | 20.9 | 0.00 | 0.00 | 0.00 | 50 | 1015.1 |
| 20260507032534 | 10 | 239 | 9.7 | 24.1 | 0.00 | 0.00 | 0.00 | 52 | 1015.0 |
| 20260507031523 | 11 | 236 | 9.7 | 16.1 | 0.00 | 0.00 | 0.00 | 51 | 1014.9 |
| 20260507030540 | 11 | 225 | 11.3 | 19.3 | 0.00 | 0.00 | 0.00 | 51 | 1014.8 |
| 20260507025522 | 11 | 262 | 8.0 | 20.9 | 0.00 | 0.00 | 0.00 | 51 | 1015.0 |
| 20260507024532 | 10 | 238 | 9.7 | 19.3 | 0.00 | 0.00 | 0.00 | 51 | 1014.8 |
| 20260507023520 | 10 | 211 | 12.9 | 24.1 | 0.00 | 0.00 | 0.00 | 50 | 1014.8 |
| 20260507022531 | 10 | 202 | 12.9 | 22.5 | 0.00 | 0.00 | 0.00 | 51 | 1014.9 |
| 20260507021520 | 10 | 225 | 9.7 | 16.1 | 0.00 | 0.00 | 0.00 | 51 | 1014.9 |
| 20260507020531 | 10 | 226 | 9.7 | 19.3 | 0.00 | 0.00 | 0.00 | 52 | 1015.0 |
| 20260507015518 | 10 | 265 | 12.9 | 24.1 | 0.00 | 0.00 | 0.00 | 51 | 1015.1 |
| 20260507014528 | 10 | 240 | 9.7 | 16.1 | 0.00 | 0.00 | 0.00 | 52 | 1015.2 |
| 20260507013537 | 10 | 227 | 9.7 | 20.9 | 0.00 | 0.00 | 0.00 | 51 | 1015.4 |
| 20260507012525 | 10 | 229 | 6.4 | 12.9 | 0.00 | 0.00 | 0.00 | 52 | 1015.3 |
| 20260507011535 | 10 | 248 | 6.4 | 17.7 | 0.00 | 0.00 | 0.00 | 53 | 1015.4 |
| 20260507010523 | 10 | 228 | 9.7 | 16.1 | 0.00 | 0.00 | 0.00 | 51 | 1015.5 |
| 20260507005533 | 10 | 271 | 9.7 | 19.3 | 0.00 | 0.00 | 0.00 | 52 | 1015.3 |
| 20260507004522 | 10 | 259 | 8.0 | 19.3 | 0.00 | 0.00 | 0.00 | 52 | 1015.1 |
| 20260507003531 | 10 | 235 | 12.9 | 30.6 | 0.00 | 0.00 | 0.00 | 52 | 1015.0 |
| 20260507002522 | 10 | 251 | 9.7 | 19.3 | 0.00 | 0.00 | 0.00 | 52 | 1015.0 |
| 20260507001529 | 9 | 261 | 8.0 | 25.7 | 0.00 | 0.00 | 0.00 | 53 | 1014.9 |
| 20260507000518 | 9 | 241 | 11.3 | 22.5 | 0.00 | 0.00 | 0.00 | 53 | 1015.2 |
| 20260506235528 | 10 | 206 | 8.0 | 16.1 | 0.00 | 0.00 | 0.00 | 54 | 1015.1 |
| 20260506234517 | 9 | 236 | 12.9 | 25.7 | 0.00 | 0.00 | 0.00 | 54 | 1014.8 |
| 20260506233527 | 9 | 264 | 11.3 | 20.9 | 0.00 | 0.00 | 0.00 | 55 | 1014.5 |
| 20260506232537 | 8 | 264 | 9.7 | 20.9 | 0.00 | 0.00 | 0.00 | 56 | 1014.8 |
| 20260506231524 | 8 | 266 | 9.7 | 20.9 | 0.00 | 0.00 | 0.00 | 57 | 1014.9 |
| 20260506230533 | 8 | 266 | 9.7 | 22.5 | 0.00 | 0.00 | 0.00 | 58 | 1014.8 |
| 20260506225529 | 8 | 246 | 9.7 | 17.7 | 0.00 | 0.00 | 0.00 | 58 | 1014.7 |
| 20260506224532 | 8 | 265 | 12.9 | 25.7 | 0.00 | 0.00 | 0.00 | 59 | 1014.8 |
| 20260506223521 | 8 | 247 | 11.3 | 24.1 | 0.00 | 0.00 | 0.00 | 59 | 1014.7 |
| 20260506222602 | 8 | 270 | 8.0 | 17.7 | 0.00 | 0.00 | 0.00 | 58 | 1014.4 |
| 20260506221518 | 8 | 269 | 9.7 | 20.9 | 0.00 | 0.00 | 0.00 | 59 | 1014.2 |
| 20260506220527 | 8 | 268 | 9.7 | 20.9 | 0.00 | 0.00 | 0.00 | 58 | 1013.9 |
| 20260506215543 | 8 | 271 | 11.3 | 20.9 | 0.00 | 0.00 | 0.00 | 58 | 1013.5 |
| 20260506214524 | 8 | 274 | 8.0 | 12.9 | 0.00 | 0.00 | 0.00 | 60 | 1013.5 |